Showing default

QIANFAN-33, 61566

Orbit data source: Space-Track

QIANFAN-33, 61566 is a Chinese payload satellite in LEO that was launched on Tue, 15 Oct 2024 UTC via a CHANG ZHENG 6A launch vehicle from the Taiyaun Space Center, China (TSC). Payload-class satellites include a variety of spacecraft equipped with specific instruments for various scientific and technological missions. These include communications satellites like Starlink; space stations such as the ISS; scientific satellites like the Hubble; Earth observation satellites from companies like Planet Labs, Umbra, and HawkEye 360; GPS; miniature CubeSats for education and research; and military/defense satellites.

Loading next visibility...
Identifier
61566, 2024-185Q
Orbit
LEO
Country
Flag of CNCN / PRC
Related business
Manufacturer
GESIH/SECM
Mission
Operational Commercial Communications
Bus & Motor
QIANFAN, Unknown motor
Mass
267 kg wet, ~267 kg dry
Launch date (UTC)
2024-10-15 (1 year ago)
Launch vehicle
CHANG ZHENG 6A
Launch site
Taiyaun Space Center, China (TSC)
Object type
Payload
Rocket body
Debris
Shape & HBR
Box + 1 Pan, 5.0 m
Radar Cross Section
13.200 m², Large (>1 m²)

Expand to show TLE details & history
Last TLE update: 11 hours ago

TLE from 11 hours ago
0 QIANFAN-33
1 61566U 24185Q   25289.15342928  .00000657  00000-0  46597-3 0  9996
2 61566  88.9747  85.2245 0008220 134.7686 225.4161 13.96475235 61128
Epoch: 2025-10-16T03:40Z
TLE epoch observation values (Epoch: 2025-10-16T03:40:56.289Z)
Latitude
-0.00003°
Longitude
5.07272°
Altitude
913.252 km
Speed
7.393 km/s
True Right ascension
05h 40m 53s
True Declination
0° 00' 00"
Sunlit
Object was in daylight at epoch
Visualization orbit readout
Latitude
Unknown
Longitude
Unknown
Altitude
Unknown
Speed
Unknown
Apparent Right ascension
Unknown
Apparent Declination
Unknown
Sunlit
N/A
Visualization observer readout
Local Sidereal Time
09:24:48
Azimuth
Unknown
Elevation
Unknown
Doppler factor
Unknown
Orbital elements
Apogee altitude
908.997 km
Perigee altitude
897.027 km
Semi-major axis
7,281.149 km
Eccentricity
0.00082
Inclination
88.9747°
RAAN
85.2245°
Arg. of periapsis
134.7686°
True anomaly
225.34906°
Mean anomaly
225.4161°
Eccentric anomaly
225.38258°
Mean motion
3.49336 °/min
Orbital period
103.05 mins
BSTAR
0.00046597
Loading maneuver chart data...
Computing Atmospheric mass density...
Loading historical data...
Loading historical data...
Loading historical data...
Loading historical data...
Loading historical data...
Loading historical data...
Loading historical data...

Documentation

Showing up to 5 results
|